Ellsworth AFB, SD

9:06 AM MST on January 16, 2017 (GMT -0700)
Ellsworth Air Force Base

Weather History for KRCA - November, 2013

Change the Weather History Date:

Wednesday, November 20, 2013

  Actual Average Record
Temperature  
Mean Temperature 26 °F -  
Max Temperature 38 °F 42 °F 68 °F (2001)
Min Temperature 12 °F 22 °F -2 °F (2011)
Degree Days  
Heating Degree Days 40    
Moisture  
Dew Point 18 °F    
Average Humidity 81    
Maximum Humidity 93    
Minimum Humidity 61    
Precipitation  
Precipitation 0.00 in - - ()
Sea Level Pressure  
Sea Level Pressure 30.00 in    
Wind  
Wind Speed 17 mph (North)    
Max Wind Speed 32 mph    
Max Gust Speed 41 mph    
Visibility 6 miles    
Events Fog , Snow    
Averages and records for this station are not official NWS values.
T = Trace of Precipitation, MM = Missing Value Source: NWS Daily Summary

Daily Weather History Graph

Daily Weather History Graph

Search for Another Location

Airport or City:

Trip Planner

Search our weather history database for the weather conditions in past years. The results will help you decide how hot, cold, wet, or windy it might be!

Date:

Astronomy

Nov. 20, 2013 Rise Set
Actual Time 6:54 AM MST 4:21 PM MST
Civil Twilight 6:22 AM MST 4:52 PM MST
Nautical Twilight 5:47 AM MST 5:28 PM MST
Astronomical Twilight 5:13 AM MST 6:02 PM MST
Moon 7:06 PM MST (11/20) 9:21 AM MST (11/20)
Length of Visible Light 10h 29m
Length of Day
9h 26m
Waning Gibbous, 91% of the Moon is Illuminated
Nov 20
Waning Gibbous
Nov 25
Last Quarter
Dec 2
New
Dec 9
First Quarter
Dec 17
Full

Hourly Weather History & Observations

Time (MST) Temp. Windchill Dew Point Humidity Pressure Visibility Wind Dir Wind Speed Gust Speed Precip Events Conditions
12:58 AM 36.0 °F 31.1 °F 25.7 °F 66% 29.68 in 10.0 mi West 5.8 mph - N/A   Clear
1:58 AM 33.6 °F 27.5 °F 24.4 °F 69% 29.71 in 10.0 mi West 6.9 mph - N/A   Partly Cloudy
2:58 AM 34.0 °F 28.0 °F 24.4 °F 68% 29.73 in 10.0 mi West 6.9 mph - N/A   Scattered Clouds
3:58 AM 33.3 °F 27.1 °F 24.6 °F 71% 29.73 in 10.0 mi WNW 6.9 mph - N/A   Clear
4:58 AM 33.4 °F 29.1 °F 25.2 °F 72% 29.76 in 10.0 mi West 4.6 mph - N/A   Clear
5:58 AM 38.8 °F 28.8 °F 26.6 °F 61% 29.78 in 10.0 mi North 20.7 mph - N/A   Clear
6:58 AM 33.4 °F 21.7 °F 27.1 °F 78% 29.85 in 10.0 mi North 20.7 mph - N/A   Clear
7:58 AM 29.5 °F 18.8 °F 26.4 °F 88% 29.89 in 10.0 mi North 13.8 mph - N/A   Clear
8:06 AM 28.4 °F 17.0 °F 26.6 °F 93% 29.81 in 10.0 mi North 15.0 mph - N/A   Partly Cloudy
8:16 AM 28.4 °F 17.0 °F 26.6 °F 93% 29.81 in 10.0 mi North 15.0 mph - N/A   Mostly Cloudy
8:49 AM 28.4 °F 17.5 °F 26.6 °F 93% 29.82 in 1.5 mi North 13.8 mph - N/A   Overcast
8:59 AM 28.6 °F 16.4 °F 26.6 °F 92% 29.90 in 1.5 mi North 17.3 mph 20.7 mph N/A   Overcast
9:03 AM 28.4 °F 17.0 °F 26.6 °F 93% 29.82 in 2.0 mi North 15.0 mph - N/A   Overcast
9:14 AM 28.4 °F 18.0 °F 26.6 °F 93% 29.82 in 2.0 mi NNE 12.7 mph - N/A   Overcast
9:24 AM 28.4 °F 15.8 °F 26.6 °F 93% 29.82 in 1.0 mi North 18.4 mph - N/A   Overcast
9:29 AM 28.4 °F 16.2 °F 26.6 °F 93% 29.82 in 0.8 mi North 17.3 mph - N/A   Overcast
9:34 AM 28.4 °F 16.6 °F 26.6 °F 93% 29.83 in 1.0 mi North 16.1 mph - N/A   Overcast
9:39 AM 28.4 °F 16.2 °F 26.6 °F 93% 29.83 in 0.5 mi North 17.3 mph - N/A   Overcast
9:44 AM 28.4 °F 16.6 °F 26.6 °F 93% 29.83 in 0.5 mi NNE 16.1 mph - N/A Fog Fog
9:58 AM 27.5 °F 15.9 °F 25.7 °F 93% 29.92 in 0.5 mi North 15.0 mph - N/A Fog Fog
10:13 AM 28.4 °F 16.6 °F 26.6 °F 93% 29.83 in 0.8 mi North 16.1 mph - N/A   Overcast
10:18 AM 28.4 °F 16.6 °F 26.6 °F 93% 29.84 in 1.5 mi NNE 16.1 mph - N/A   Overcast
10:23 AM 28.4 °F 17.0 °F 24.8 °F 86% 29.84 in 2.0 mi North 15.0 mph - N/A   Overcast
10:33 AM 28.4 °F 17.0 °F 24.8 °F 86% 29.83 in 2.0 mi North 15.0 mph - N/A   Overcast
10:48 AM 28.4 °F 18.5 °F 24.8 °F 86% 29.84 in 1.0 mi North 11.5 mph - N/A   Overcast
10:59 AM 26.6 °F 16.8 °F 24.8 °F 93% 29.94 in 0.8 mi NNE 10.4 mph - N/A   Overcast
11:04 AM 26.6 °F 16.8 °F 24.8 °F 93% 29.83 in 1.0 mi NNE 10.4 mph - N/A   Overcast
11:19 AM 26.6 °F 16.2 °F 24.8 °F 93% 29.82 in 2.0 mi NNE 11.5 mph - N/A   Overcast
11:58 AM 26.2 °F 17.8 °F 24.3 °F 92% 29.91 in 2.0 mi NNE 8.1 mph - N/A   Overcast
12:18 PM 26.6 °F 18.2 °F 24.8 °F 93% 29.80 in 3.0 mi NE 8.1 mph - N/A   Overcast
12:58 PM 26.2 °F - 23.7 °F 90% 29.88 in 4.0 mi East 2.3 mph - N/A   Overcast
1:58 PM 26.6 °F 16.8 °F 23.9 °F 90% 29.91 in 5.0 mi North 10.4 mph - N/A   Overcast
2:48 PM 26.6 °F 12.0 °F 23.0 °F 86% 29.86 in 10.0 mi North 23.0 mph 26.5 mph N/A   Overcast
2:58 PM 26.2 °F 12.2 °F 22.3 °F 85% 29.98 in 7.0 mi North 20.7 mph - N/A   Overcast
3:03 PM 26.6 °F 12.0 °F 23.0 °F 86% 29.88 in 7.0 mi North 23.0 mph 27.6 mph N/A   Overcast
3:18 PM 26.6 °F 11.7 °F 23.0 °F 86% 29.90 in 5.0 mi North 24.2 mph 29.9 mph N/A   Overcast
3:43 PM 26.6 °F 13.1 °F 23.0 °F 86% 29.93 in 4.0 mi North 19.6 mph 27.6 mph N/A   Overcast
3:58 PM 26.1 °F 10.7 °F 23.9 °F 92% 30.04 in 4.0 mi NNW 25.3 mph 31.1 mph 0.00 in   Overcast
4:49 PM 24.8 °F 7.6 °F 17.6 °F 74% 30.00 in 10.0 mi North 31.1 mph 39.1 mph N/A   Overcast
4:58 PM 25.0 °F 8.1 °F 16.5 °F 70% 30.13 in 10.0 mi North 29.9 mph 39.1 mph 0.00 in   Overcast
5:16 PM 23.0 °F 6.0 °F 15.8 °F 74% 30.03 in 10.0 mi North 27.6 mph 39.1 mph N/A   Overcast
5:18 PM 23.0 °F 4.9 °F 14.0 °F 68% 30.04 in 10.0 mi North 32.2 mph 39.1 mph N/A   Overcast
5:21 PM 23.0 °F 5.1 °F 14.0 °F 68% 30.04 in 10.0 mi North 31.1 mph 41.4 mph N/A   Squalls
5:31 PM 21.2 °F 2.4 °F 14.0 °F 74% 30.05 in 10.0 mi North 32.2 mph 40.3 mph N/A   Overcast
5:32 PM 21.2 °F 2.4 °F 14.0 °F 74% 30.05 in 10.0 mi North 32.2 mph 40.3 mph N/A Snow Light Snow
5:36 PM 21.2 °F 3.0 °F 14.0 °F 74% 30.06 in 10.0 mi North 29.9 mph 40.3 mph N/A Snow Light Snow
5:51 PM 19.4 °F 1.4 °F 12.2 °F 74% 30.06 in 10.0 mi North 26.5 mph 36.8 mph N/A Snow Light Snow
5:58 PM 19.6 °F 1.7 °F 12.4 °F 74% 30.17 in 10.0 mi North 26.5 mph 34.5 mph 0.00 in Snow Light Snow
5:59 PM 19.4 °F 2.1 °F 12.2 °F 74% 30.06 in 10.0 mi North 24.2 mph 33.4 mph N/A   Overcast
6:00 PM 19.4 °F 1.4 °F 12.2 °F 74% 30.07 in 10.0 mi North 26.5 mph 33.4 mph N/A   Overcast
6:10 PM 19.4 °F 2.5 °F 12.2 °F 74% 30.07 in 10.0 mi North 23.0 mph 33.4 mph N/A   Overcast
6:20 PM 19.4 °F 2.5 °F 14.0 °F 80% 30.08 in 7.0 mi North 23.0 mph 28.8 mph N/A Snow Light Snow
6:25 PM 19.4 °F 1.4 °F 14.0 °F 80% 30.08 in 5.0 mi NNW 26.5 mph 29.9 mph N/A Snow Light Snow
6:30 PM 19.4 °F 0.2 °F 14.0 °F 80% 30.08 in 5.0 mi NNW 31.1 mph 38.0 mph N/A Snow Light Snow
6:50 PM 17.6 °F -0.6 °F 10.4 °F 73% 30.09 in 10.0 mi North 25.3 mph 38.0 mph N/A Snow Light Snow
6:58 PM 17.6 °F -1.0 °F 10.4 °F 73% 30.24 in 10.0 mi North 26.5 mph 38.0 mph 0.00 in   Overcast
7:59 PM 17.4 °F -1.9 °F 8.8 °F 69% 30.30 in 10.0 mi NNW 28.8 mph 35.7 mph N/A   Overcast
8:03 PM 17.6 °F -1.0 °F 8.6 °F 68% 30.16 in 10.0 mi North 26.5 mph 36.8 mph N/A Snow Light Snow
8:53 PM 15.8 °F -4.1 °F 10.4 °F 79% 30.19 in 0.5 mi NNW 28.8 mph 38.0 mph N/A Snow Light Snow
8:58 PM 15.8 °F -1.5 °F 10.4 °F 79% 30.34 in 1.0 mi NNW 20.7 mph 38.0 mph 0.00 in Snow Light Snow
9:02 PM 15.8 °F -4.1 °F 10.4 °F 79% 30.20 in 1.0 mi NNW 28.8 mph 34.5 mph N/A Snow Light Snow
9:15 PM 15.8 °F -4.1 °F 8.6 °F 73% 30.21 in 3.0 mi NNW 28.8 mph 39.1 mph N/A Snow Light Snow
9:29 PM 14.0 °F -5.1 °F 8.6 °F 79% 30.21 in 2.0 mi NNW 24.2 mph 35.7 mph N/A Snow Light Snow
9:35 PM 14.0 °F -5.8 °F 8.6 °F 79% 30.22 in 3.0 mi NNW 26.5 mph 36.8 mph N/A Snow Light Snow
9:52 PM 14.0 °F -5.8 °F 8.6 °F 79% 30.22 in 3.0 mi NNW 26.5 mph 36.8 mph N/A Snow Light Snow
9:58 PM 14.5 °F -6.4 °F 8.6 °F 77% 30.38 in 3.0 mi NNW 31.1 mph 38.0 mph 0.00 in Snow Light Snow
9:59 PM 14.0 °F -5.8 °F 8.6 °F 79% 30.22 in 3.0 mi NNW 26.5 mph 38.0 mph N/A Snow Light Snow
10:04 PM 14.0 °F -6.5 °F 8.6 °F 79% 30.22 in 2.5 mi NNW 28.8 mph 38.0 mph N/A Snow Light Snow
10:14 PM 14.0 °F -5.8 °F 8.6 °F 79% 30.23 in 3.0 mi NNW 26.5 mph 38.0 mph N/A Snow Light Snow
10:29 PM 14.0 °F -4.3 °F 8.6 °F 79% 30.24 in 3.0 mi NNW 21.9 mph 34.5 mph N/A Snow Light Snow
10:46 PM 14.0 °F -7.1 °F 6.8 °F 73% 30.24 in 6.0 mi NNW 31.1 mph 39.1 mph N/A Snow Light Snow
10:58 PM 13.1 °F -6.3 °F 5.7 °F 72% 30.42 in 9.0 mi NNW 24.2 mph 38.0 mph 0.00 in Snow Light Snow
11:58 PM 12.6 °F -7.0 °F 5.2 °F 72% 30.44 in 9.0 mi NNW 24.2 mph 33.4 mph 0.00 in Snow Light Snow